Probability
0 0 0 0 0 0 0 1 1 2 4 6 9 10 11 13 14 16 20 23 24 24 26 28 32 34 32 29 29 31 32 34 36 36 35 31 29 28 26 22 20 20 19 18
0 0 0 0 0 0 0 1 2 3 5 6 7 8 9 11 13 15 20 24 25 26 28 30 33 33 30 26 26 28 29 31 33 35 32 28 26 25 24 22 21 21 19 17
0 0 0 0 0 0 1 2 2 4 6 5 4 5 8 11 13 15 19 23 26 28 29 29 29 28 25 22 22 24 25 26 27 28 28 26 25 24 23 22 22 23 22 20
0 0 0 0 0 0 2 2 2 3 5 5 4 5 9 14 17 18 21 24 26 27 26 24 21 20 21 20 19 19 19 18 18 20 22 24 25 25 24 22 21 23 24 23
0 0 0 0 0 0 1 2 1 2 4 5 5 7 11 16 20 21 23 25 26 25 22 18 16 16 19 19 18 15 12 12 14 15 17 21 22 22 22 22 21 20 20 22
1 1 1 0 0 1 2 2 3 3 3 4 7 10 14 18 21 22 25 26 26 24 20 17 16 18 19 18 16 14 11 11 14 17 18 20 20 19 19 20 20 17 17 18
2 1 1 1 1 2 4 6 8 9 8 9 12 16 19 21 22 25 27 28 27 25 23 20 18 20 21 19 18 18 16 14 16 17 17 18 20 20 19 18 18 18 17 17
4 4 4 4 4 7 10 13 15 15 14 15 18 19 22 24 25 26 27 27 28 29 29 25 21 21 23 24 24 23 21 19 18 17 16 18 22 24 20 17 17 18 18 17
7 7 7 7 8 11 13 15 15 15 16 18 19 19 21 24 26 26 26 27 28 29 29 26 22 21 24 27 28 25 23 21 20 20 19 22 25 24 19 16 15 16 15 14
10 10 9 9 9 11 13 12 11 12 15 17 19 20 21 23 25 27 27 27 27 26 26 25 23 23 25 29 29 26 22 20 20 20 20 23 24 20 15 13 13 12 12 11
12 12 11 9 8 9 10 9 8 10 13 15 18 22 23 24 26 28 28 26 25 23 22 23 24 25 27 28 28 25 21 18 16 15 15 18 17 14 10 10 10 9 9 10
12 12 12 9 8 8 8 7 8 10 12 14 19 22 24 26 27 27 26 23 21 20 21 24 26 28 28 27 26 23 20 17 13 11 11 13 12 9 7 5 5 4 5 6
9 10 11 10 9 8 7 7 8 10 12 15 18 21 24 26 26 25 22 19 18 19 21 24 26 27 27 24 22 21 19 16 12 10 10 10 10 9 8 5 3 2 2 2
6 8 11 13 12 8 6 6 8 10 13 16 17 18 22 24 23 22 19 17 17 18 21 23 23 22 21 18 17 18 16 13 10 9 9 9 10 11 11 9 7 5 2 1
5 8 11 13 11 7 3 5 8 11 15 17 17 17 18 20 21 21 18 15 15 17 19 22 22 20 17 15 15 15 12 10 9 8 8 8 10 11 11 12 11 8 5 3
6 8 9 10 7 4 3 5 10 14 16 17 17 16 16 17 20 20 17 15 15 16 18 21 24 23 18 14 13 12 10 8 7 7 7 7 8 9 11 12 12 10 7 5
6 7 8 7 5 4 5 9 13 15 15 15 16 16 16 17 19 19 18 15 14 14 16 20 23 22 18 13 10 8 7 6 6 7 7 8 8 9 11 13 12 10 8 7
5 5 6 6 6 7 9 12 15 15 15 14 15 17 17 18 19 20 18 16 14 13 15 18 18 15 13 10 7 5 4 5 7 7 8 8 9 11 12 13 12 10 8 7
6 6 6 5 6 8 10 11 12 14 14 14 15 16 17 17 18 19 18 16 14 13 15 15 11 8 8 7 5 4 4 5 7 8 9 9 11 12 13 12 11 10 9 8
8 8 6 5 6 7 7 7 10 13 13 13 14 15 15 16 17 17 16 15 14 14 12 9 7 7 7 6 4 4 4 4 6 7 8 9 10 12 12 11 10 10 9 8
9 9 8 6 6 6 5 6 9 12 12 12 13 14 14 14 15 15 14 13 13 12 8 5 6 7 7 6 3 2 2 3 4 6 6 7 8 10 10 10 10 10 9 9
10 10 10 8 7 8 8 9 11 12 12 12 13 14 14 14 14 14 12 10 9 7 5 4 3 4 4 2 1 1 1 1 2 3 4 6 8 9 10 10 9 9 8 8
11 11 10 10 11 13 13 13 12 13 13 14 15 15 15 15 15 12 9 6 4 3 3 2 1 1 1 0 0 0 0 0 0 2 4 7 9 9 9 9 8 8 7 7
11 11 10 11 14 15 15 14 14 14 15 16 16 17 17 16 15 11 6 4 3 3 3 2 1 0 0 1 1 1 1 1 1 3 5 7 8 9 8 8 7 7 6 6
10 10 9 11 14 14 13 13 13 14 15 16 17 17 16 15 14 11 7 5 4 3 3 2 1 0 1 2 2 2 2 2 3 5 5 5 5 6 7 7 6 6 6 6
8 8 8 10 12 13 12 12 12 12 13 15 16 15 14 13 12 9 8 7 5 4 3 3 2 2 3 3 3 3 4 4 4 5 4 3 3 5 7 7 7 6 6 5
5 6 7 8 10 12 11 11 11 11 12 14 14 13 12 11 9 8 7 7 6 5 4 3 3 4 4 4 3 4 5 5 5 4 4 4 4 6 8 8 7 7 6 5
Wind_Speed
11 10 10 12 13 10 8 8 7 4 2 2 4 6 5 5 5 6 4 5 5 5 5 4 4 3 2 2 2 3 3 2 2 1 1 0 0 0 0 0 1 0 0 1
13 13 12 12 13 11 10 8 7 4 1 4 5 6 5 4 3 4 4 5 5 4 4 4 3 3 2 2 2 2 2 2 2 1 1 1 0 0 0 0 1 1 0 1
12 12 12 12 9 8 7 6 6 5 3 5 4 4 3 3 2 4 4 4 4 4 3 3 3 3 2 2 2 3 3 2 2 1 1 1 1 0 0 1 1 1 1 1
10 10 12 6 5 4 4 5 3 3 2 5 3 4 4 4 3 3 4 4 3 2 3 3 3 3 3 3 3 3 3 3 3 3 2 2 2 2 1 1 1 1 2 1
8 11 10 7 6 5 2 5 4 3 3 3 4 3 4 4 3 3 4 4 3 3 3 3 3 4 3 3 3 2 3 2 2 2 2 2 3 2 1 2 2 2 2 1
9 11 11 5 5 7 4 2 2 3 4 4 2 1 4 4 5 5 5 4 4 4 3 3 3 4 3 2 2 2 2 1 1 1 1 1 1 2 2 2 2 2 2 1
11 11 6 5 6 7 6 1 4 5 5 5 4 4 5 5 5 5 4 4 5 4 3 3 3 3 2 2 2 2 1 1 1 1 1 1 1 1 2 2 3 2 2 2
9 10 5 7 6 3 3 5 5 6 6 5 5 4 5 5 5 4 4 4 4 4 3 3 2 2 2 2 2 1 1 1 0 1 2 1 1 2 2 3 3 3 2 2
3 2 2 4 4 4 4 4 5 6 5 4 4 4 4 4 3 3 3 3 3 3 3 3 3 2 1 2 1 1 1 1 1 1 1 1 1 3 3 2 2 2 2 2
3 2 1 3 3 4 5 5 5 5 4 3 3 3 3 3 3 3 3 2 2 2 2 2 2 2 2 1 1 1 1 1 1 1 1 1 2 2 2 2 2 2 3 3
4 1 2 3 3 4 4 4 5 5 3 2 2 2 2 2 2 2 2 2 2 1 1 1 1 1 2 2 1 1 2 2 3 2 1 1 1 1 1 1 1 1 1 2
3 3 3 3 3 4 3 4 4 5 4 3 2 2 3 2 2 2 2 1 1 1 1 1 1 1 1 1 1 1 3 3 3 2 1 2 1 0 1 1 1 2 2 1
3 4 4 3 3 4 3 3 4 3 3 3 3 3 2 1 2 2 2 1 1 1 1 1 1 1 1 1 1 2 3 3 3 2 2 2 1 1 1 1 3 3 3 3
4 4 3 3 2 2 2 3 3 3 3 3 3 2 1 2 2 2 1 1 1 1 1 1 1 1 1 1 1 2 3 3 3 2 2 2 2 2 2 1 1 2 3 5
4 4 3 3 3 2 2 2 1 2 3 3 3 2 2 2 2 2 1 1 2 1 1 1 1 1 2 2 2 2 2 2 3 2 2 1 2 2 2 2 2 2 0 1
5 4 3 3 3 3 2 1 1 2 2 3 3 2 2 2 2 1 1 1 1 0 0 1 1 2 2 2 2 1 2 3 3 3 2 2 1 2 2 2 2 2 2 1
4 3 3 3 3 3 2 2 2 2 2 2 2 2 1 1 1 1 0 0 1 1 1 1 1 1 2 2 2 2 2 2 3 3 2 2 2 2 2 2 2 2 1 1
4 3 3 3 3 2 2 2 2 2 2 1 1 0 0 0 0 0 0 0 0 0 1 1 1 1 2 1 2 3 2 1 1 2 1 2 3 3 2 2 2 2 2 0
3 3 3 3 1 1 1 2 2 2 1 1 1 1 1 0 0 0 0 0 0 0 1 2 2 2 2 2 4 3 3 2 1 1 1 1 2 2 2 2 2 2 2 2
2 2 2 3 2 1 1 1 1 1 1 0 0 1 1 1 1 1 0 1 1 1 1 1 1 2 2 3 5 4 3 2 1 1 2 2 2 2 2 2 2 2 2 2
2 3 3 2 2 2 1 2 1 0 0 0 0 1 1 1 2 1 2 1 0 1 1 1 1 1 2 3 5 4 3 2 1 1 1 2 2 2 2 3 3 2 2 3
2 2 2 1 1 2 1 1 1 1 1 1 1 1 2 3 3 2 2 1 1 0 2 1 1 2 4 5 4 3 3 2 2 1 1 1 2 2 2 3 3 2 3 3
2 2 3 2 2 2 2 1 1 1 1 1 2 2 4 3 3 2 1 1 1 1 1 1 1 3 5 5 3 3 3 3 3 2 1 1 1 1 2 3 3 2 2 2
2 2 2 3 2 2 2 1 1 1 1 2 3 3 3 3 2 1 1 1 1 1 1 1 1 2 4 4 3 3 3 3 3 4 3 2 1 1 1 2 2 2 2 3
2 2 2 2 2 2 2 1 1 1 2 2 2 2 2 1 1 0 0 0 1 1 1 1 2 3 4 3 3 2 2 2 3 3 3 3 3 2 2 2 2 3 3 3
1 2 1 2 3 2 2 2 2 2 2 1 1 0 1 1 0 0 0 1 1 1 1 1 2 3 2 2 2 2 2 1 2 2 3 3 3 3 3 2 3 3 2 2
2 2 1 2 3 2 2 2 2 2 1 1 0 1 1 1 1 1 0 0 1 1 1 1 1 1 1 2 2 2 2 2 2 3 3 3 3 3 3 3 3 3 3 3
Wind_Direction
277 278 276 283 285 281 275 276 280 271 276 118 119 115 113 111 106 106 102 95 88 91 93 90 86 81 70 59 76 94 107 110 110 136 156 160 137 150 100 288 275 294 328 315
279 279 276 276 273 281 286 289 288 258 173 93 82 89 98 101 112 121 106 100 101 93 98 102 97 88 85 73 79 94 98 92 88 81 79 69 76 66 79 295 307 312 253 273
276 280 281 270 269 275 289 308 301 292 109 109 94 110 122 126 118 98 91 88 85 98 105 110 111 99 95 109 101 85 78 76 72 72 72 57 3 55 344 297 302 293 289 273
273 278 267 278 297 293 314 323 320 335 87 120 115 105 103 98 90 90 104 99 88 100 108 114 110 98 92 89 87 83 79 69 51 34 36 40 32 28 10 328 302 280 273 279
267 266 265 263 283 298 305 311 344 340 2 66 89 104 92 79 82 92 102 100 96 102 102 99 106 106 100 94 88 86 79 70 52 37 30 31 24 360 338 308 298 289 273 265
258 265 272 280 308 304 288 241 17 13 26 31 15 311 80 66 62 61 72 84 87 87 88 89 90 99 100 94 87 69 62 48 31 20 24 21 0 320 315 302 286 285 287 280
253 261 271 307 315 298 276 5 7 14 27 31 33 30 60 64 64 57 65 71 76 79 77 70 71 89 102 93 82 74 57 17 24 356 319 326 316 305 305 302 296 286 270 263
252 256 263 348 341 352 21 37 24 19 29 42 49 52 69 65 64 60 69 71 66 70 71 68 67 74 82 64 51 52 21 12 10 294 288 319 316 299 294 287 280 274 271 267
266 264 49 44 38 46 58 44 31 18 14 39 58 60 72 69 70 66 66 70 70 77 80 65 57 55 67 57 37 19 351 319 301 301 319 303 270 272 273 277 290 304 311 312
269 232 341 31 32 27 35 38 27 11 2 20 56 58 87 84 71 64 57 72 80 77 77 61 51 30 37 44 25 356 304 284 271 260 257 276 288 299 327 339 338 340 341 337
286 296 355 358 354 10 23 22 12 355 358 25 56 73 82 91 82 70 74 63 70 82 70 39 37 27 35 25 8 335 297 276 264 257 256 276 326 338 13 13 347 304 343 336
305 336 320 317 348 11 5 350 351 345 353 18 52 75 65 73 68 70 75 80 65 62 58 33 22 11 24 14 352 302 279 267 257 252 238 226 198 307 355 265 197 182 202 232
334 326 325 339 7 21 360 326 333 340 6 34 58 59 45 76 91 85 84 90 90 85 65 65 37 0 354 340 302 281 283 285 277 271 264 267 231 219 241 279 271 247 243 248
348 338 322 341 340 351 329 322 350 8 39 63 72 73 68 91 92 88 83 76 77 76 77 68 31 351 345 335 308 299 291 298 298 285 282 290 298 293 283 274 259 264 245 239
312 311 311 329 332 326 340 6 35 34 49 64 77 85 89 90 87 79 73 73 79 73 61 45 344 334 351 350 327 300 298 300 299 292 284 286 285 292 302 311 316 334 43 247
290 300 313 322 320 326 317 321 16 46 57 60 63 68 80 87 90 77 78 98 119 100 350 325 329 350 347 340 333 311 311 318 311 295 285 289 299 311 312 317 327 335 339 6
270 281 295 302 307 309 323 358 8 26 60 67 58 54 61 85 106 106 63 341 7 1 328 341 5 7 332 327 309 284 279 282 280 282 295 314 314 306 306 312 321 327 352 45
260 263 278 291 297 308 343 359 11 26 54 55 56 70 104 255 206 174 274 310 32 341 344 352 7 341 328 340 313 293 283 265 249 290 317 326 315 304 309 322 329 336 342 1
266 267 278 288 294 293 318 339 355 20 28 40 32 13 15 348 306 209 257 257 271 318 359 22 347 308 300 302 301 280 276 279 280 308 294 265 279 300 310 313 321 336 330 329
281 282 283 292 278 290 315 332 332 21 49 50 30 21 1 329 301 275 277 270 290 329 344 353 314 305 302 318 312 289 286 288 286 311 323 307 291 302 315 318 323 330 333 336
269 270 259 254 287 312 321 321 317 321 268 251 302 286 266 258 249 239 242 258 107 74 317 266 278 316 323 322 298 293 298 305 311 322 318 315 316 321 331 328 335 351 360 356
304 306 297 272 280 300 302 291 265 239 234 223 223 245 245 243 243 243 232 237 204 160 268 270 320 342 331 310 288 300 306 306 307 309 302 317 322 327 332 336 339 355 4 357
328 327 321 311 292 291 294 280 234 231 225 223 226 234 241 244 241 237 230 202 215 204 272 326 357 337 318 294 295 311 318 320 316 311 322 353 340 347 349 336 339 354 356 346
314 307 305 307 315 288 280 279 286 253 236 240 232 234 240 235 225 210 177 145 143 183 281 101 174 282 287 280 292 300 303 317 331 333 339 352 4 13 359 346 343 345 341 338
301 304 310 309 283 262 245 230 236 233 236 242 243 228 237 241 253 20 80 183 168 168 195 198 223 252 269 290 307 319 328 352 348 339 344 338 334 339 346 342 341 343 343 347
300 295 311 295 290 276 245 226 221 224 242 238 240 316 342 344 15 83 143 198 214 209 214 187 203 235 267 303 314 314 319 327 324 324 333 330 332 336 343 346 343 345 348 351
249 250 245 267 275 281 286 266 235 231 226 225 277 295 292 281 257 246 231 222 242 238 221 220 215 248 281 300 309 322 331 349 355 341 331 334 344 344 348 348 358 360 355 3